Theta_e
306 306 306 305 304 305 306 305 304 304 304 304 304 304 304 305 305 305 304 304 304 305 306 306 306 307 307 306 304 303 303 303 303 303 303 304 303 303 304 304 305 306 307 307 306 305 305 306 309 310 309 310 313 314 314 316 315 315 317 316 315 316 316 317 318 318 318 319 319 319 319 320 320 321 322 322 323 322 323 327 332 335 336 338 337 339 346 345
305 305 305 304 304 304 304 304 304 304 305 304 304 304 304 305 305 305 305 305 305 306 306 306 306 306 306 306 305 303 303 303 303 304 305 305 305 304 303 304 306 307 307 306 305 304 305 310 312 312 312 312 313 315 314 315 315 314 316 316 314 316 317 317 318 318 319 319 319 319 319 320 319 320 321 321 323 321 329 336 334 339 344 343 343 345 346 345
305 304 304 304 304 305 305 305 305 305 305 305 305 304 304 304 304 305 305 305 306 306 306 307 307 306 306 306 305 303 303 303 303 306 309 308 307 306 305 306 307 307 307 305 304 303 306 311 312 311 311 312 313 315 315 314 314 313 315 315 315 316 316 317 318 318 319 319 318 319 319 320 320 320 320 321 321 321 337 346 343 345 347 344 345 346 346 344
305 304 305 305 305 305 305 305 305 305 305 305 305 305 304 303 303 303 304 305 305 306 306 306 307 306 306 306 304 302 302 303 306 310 312 311 309 309 308 307 306 305 306 305 304 303 306 310 311 310 310 313 314 314 315 314 313 313 313 314 315 315 316 317 317 318 318 319 319 319 319 319 320 320 320 321 321 320 330 340 342 345 345 344 346 346 345 344
305 305 305 305 305 305 306 305 305 305 305 305 305 305 305 304 303 303 303 304 305 305 306 306 306 306 306 306 304 301 303 305 310 313 311 310 309 309 309 308 305 304 304 305 305 304 306 309 310 309 309 313 316 314 314 314 313 312 312 313 314 315 315 316 317 318 318 318 318 318 319 319 320 320 320 320 322 321 323 330 333 336 340 342 345 346 345 343
305 305 305 306 306 306 306 306 306 305 305 304 305 305 305 304 304 303 302 304 305 305 305 305 306 305 305 305 303 301 302 306 312 312 308 308 309 309 309 308 306 305 303 303 305 305 306 308 308 308 309 313 316 315 315 315 314 312 312 312 312 314 314 316 317 318 318 318 317 318 319 319 319 319 319 320 321 322 322 327 332 332 335 337 340 346 345 343
306 306 306 306 306 306 306 306 306 305 305 304 305 304 304 304 303 303 303 304 305 305 305 305 305 305 305 304 302 302 303 305 309 308 308 309 309 309 309 308 307 305 303 303 303 304 306 307 306 306 309 312 313 314 315 315 315 312 312 312 311 313 313 315 316 316 318 317 318 318 319 318 319 319 319 320 321 322 321 326 333 333 335 336 341 345 344 341
306 306 306 306 306 306 306 306 305 305 305 305 305 304 304 304 303 304 305 305 305 305 305 305 305 305 304 302 303 304 304 306 307 307 309 309 308 308 308 308 307 306 304 303 304 304 305 306 306 306 309 312 312 313 314 315 315 314 313 312 312 312 312 313 314 315 316 316 318 318 318 318 318 319 319 319 319 321 320 322 332 338 338 337 338 342 342 340
306 306 306 306 306 307 307 306 305 305 305 305 305 304 304 303 303 304 305 305 305 305 305 304 305 305 303 301 302 305 306 307 308 308 307 307 306 306 306 307 306 306 304 304 304 305 305 305 306 307 308 309 310 311 312 312 313 314 314 313 313 312 312 313 313 314 314 315 316 316 317 318 319 319 318 319 319 321 320 320 331 343 344 341 338 340 341 339
306 306 306 306 306 306 307 306 305 305 305 305 305 304 304 304 304 305 305 305 305 304 304 304 305 305 303 301 303 307 307 307 308 307 306 306 306 306 306 306 306 305 304 304 305 305 305 305 306 306 306 307 307 309 311 311 311 312 313 312 312 312 313 313 312 313 314 314 314 315 316 317 318 319 318 319 319 319 320 323 332 343 346 345 343 342 340 338
305 305 305 305 306 306 306 305 305 305 305 305 305 304 304 305 306 306 306 305 305 304 304 304 304 304 303 302 303 308 307 307 308 306 306 306 306 306 306 306 306 305 304 304 305 305 306 306 306 306 306 307 307 309 310 311 311 311 312 311 312 311 312 313 312 313 313 314 314 314 315 315 317 317 317 319 319 321 323 326 334 342 346 346 345 344 343 341
302 303 304 304 305 306 305 304 304 305 304 304 304 304 305 306 306 306 306 306 305 305 304 303 304 304 302 301 304 306 305 306 307 306 306 306 306 307 306 306 306 306 305 304 304 305 305 305 305 305 305 306 306 308 309 310 310 311 312 313 313 312 311 312 312 313 312 313 314 314 314 314 315 316 317 319 318 321 327 330 338 345 346 346 345 345 345 344
300 300 301 303 304 305 304 304 304 304 304 304 304 305 306 307 306 306 307 307 306 307 305 302 303 304 303 303 305 306 307 306 306 306 306 306 306 307 307 307 307 306 305 304 304 304 305 305 305 305 305 305 306 308 309 309 310 311 312 313 313 312 312 312 312 312 312 313 314 314 312 312 315 316 316 319 317 321 335 340 342 346 345 345 345 344 346 345
300 299 299 301 303 303 303 303 303 304 304 304 305 306 307 306 306 307 307 307 307 307 304 301 301 302 302 305 306 307 308 307 307 306 306 306 306 306 307 307 307 306 305 305 304 304 304 304 304 304 304 305 306 308 309 309 310 312 313 313 313 312 312 312 313 313 312 313 314 313 311 312 314 316 316 318 317 319 337 346 343 345 346 344 344 343 345 344
300 298 299 300 301 302 302 302 303 304 304 305 307 307 307 306 307 308 308 307 307 307 304 301 300 302 302 306 306 308 307 307 308 307 307 306 306 306 306 306 306 305 305 305 305 305 305 305 305 304 305 306 306 308 309 309 311 312 314 315 314 312 312 312 313 313 313 313 314 313 311 312 314 316 316 318 317 316 332 345 345 345 346 344 343 342 344 343
298 298 299 300 300 301 302 302 303 303 304 306 307 307 307 307 308 308 308 307 306 307 305 304 304 305 305 307 307 307 308 307 307 306 307 306 305 306 305 305 305 305 305 305 306 306 306 305 305 305 305 306 306 307 308 309 312 312 314 316 314 313 312 312 313 313 313 313 313 313 312 313 314 315 315 317 318 316 330 343 345 346 346 344 344 343 344 346
298 298 299 300 300 301 302 303 303 304 306 307 307 307 308 308 308 308 308 307 306 306 306 306 306 306 307 308 307 308 308 308 307 306 307 306 306 306 305 305 305 305 305 305 306 306 306 305 306 306 305 306 306 307 309 309 311 312 312 314 313 313 312 312 313 313 313 313 313 313 312 313 314 315 314 317 317 316 330 343 343 346 347 345 345 343 344 347
298 298 299 300 300 301 302 303 304 305 307 307 306 307 308 307 307 308 308 307 306 306 307 306 306 308 309 307 307 308 308 308 308 306 306 306 306 305 305 305 305 305 304 304 306 305 306 305 305 306 306 306 306 306 308 309 309 310 312 314 313 313 313 313 313 313 314 314 313 313 312 313 314 315 313 315 317 315 327 340 342 346 348 346 346 345 344 347
298 298 298 299 300 301 302 303 305 306 307 306 306 307 307 306 306 308 307 306 306 307 308 307 307 310 310 307 307 307 308 308 308 306 306 306 306 306 305 305 305 304 304 303 304 304 304 305 304 305 305 305 305 305 306 307 308 309 310 312 312 312 312 312 313 314 314 313 314 313 313 313 313 315 314 314 317 315 320 334 342 346 349 348 347 346 344 347
298 297 298 299 300 301 303 304 306 307 306 306 306 307 306 306 306 307 306 305 305 306 307 307 307 308 308 306 306 307 307 308 307 307 306 306 306 306 305 305 304 304 304 303 303 303 303 305 305 304 304 304 304 305 305 306 307 307 308 309 309 310 310 311 312 313 314 313 313 314 313 313 313 314 315 313 316 316 315 326 340 346 348 349 348 347 345 345
298 297 298 299 300 302 303 304 306 307 306 307 306 306 306 306 306 306 305 305 305 305 305 306 306 306 306 306 306 306 307 307 307 307 307 307 306 305 305 305 304 304 304 302 303 304 303 304 305 304 304 304 304 305 305 306 306 306 307 307 307 308 308 309 310 311 313 313 313 314 313 313 314 314 315 313 315 317 315 322 335 343 347 348 348 347 347 344
298 297 297 299 301 303 303 305 307 307 306 307 306 306 306 305 305 305 305 305 305 305 305 305 305 306 306 306 306 306 306 306 307 307 307 307 306 305 305 304 304 304 304 303 303 304 304 303 303 303 304 304 304 305 305 305 306 306 306 306 306 307 307 308 309 309 311 312 313 314 313 312 314 315 315 314 314 316 314 320 331 338 342 346 347 347 348 346
298 297 297 300 302 303 304 306 307 306 307 307 306 306 306 305 305 305 305 305 306 306 306 306 306 306 306 307 307 306 306 307 307 307 307 307 306 305 305 304 304 304 303 303 303 304 304 304 303 303 304 304 304 304 305 305 305 306 306 306 306 306 307 308 309 309 309 311 312 313 313 313 314 315 315 314 313 316 315 316 325 335 340 341 345 347 347 347
298 297 297 300 302 303 305 307 307 307 307 307 306 306 305 305 305 305 305 305 305 307 307 307 307 306 307 307 307 307 307 307 307 307 307 307 306 306 305 305 305 305 304 303 303 303 303 304 304 303 304 304 304 304 304 304 305 305 306 305 306 306 307 307 309 309 309 310 310 311 312 313 315 315 315 314 314 316 316 314 319 329 338 339 342 345 346 347
299 297 297 301 303 304 306 307 307 307 307 307 306 306 305 305 305 305 305 306 308 309 308 308 307 306 306 306 307 306 306 306 307 307 307 306 306 306 306 305 305 305 305 304 304 303 303 304 304 304 304 303 304 304 304 304 305 305 306 306 306 306 307 307 308 308 309 309 310 310 311 315 318 315 314 316 315 316 316 315 315 320 329 333 336 341 345 348
299 297 298 301 303 304 307 307 306 307 307 307 306 306 305 305 305 306 305 308 313 312 308 306 306 306 306 307 307 306 306 307 306 306 306 306 306 305 306 306 306 305 305 304 305 304 304 304 305 304 304 303 304 304 304 305 305 305 306 307 307 307 307 307 307 308 309 309 310 311 312 317 321 316 314 315 316 317 316 317 316 315 319 325 330 336 341 346
299 297 299 303 304 305 307 308 307 307 307 307 306 306 306 305 306 305 307 313 315 311 307 306 306 307 307 308 308 307 308 307 306 306 306 307 307 305 306 307 306 306 306 305 306 306 305 305 306 305 304 304 304 303 304 305 305 305 306 307 307 307 307 307 308 307 308 309 309 310 311 314 316 314 315 316 315 316 316 316 317 315 315 317 323 331 336 343
299 298 301 304 304 305 307 308 308 307 307 306 306 306 305 306 306 305 310 317 313 308 308 307 306 307 307 309 308 308 308 307 307 308 306 306 307 306 306 307 306 307 307 307 306 306 305 305 305 305 305 304 305 304 305 305 305 305 306 307 307 306 307 307 308 308 308 309 309 309 310 311 312 313 315 315 314 315 316 316 316 315 316 315 317 325 333 339
298 299 303 304 305 306 307 308 308 307 307 306 305 306 306 306 306 306 312 316 311 308 309 307 308 308 308 309 308 308 308 307 308 308 307 307 307 306 306 306 305 306 306 306 306 305 305 305 305 305 304 304 305 305 305 304 305 306 306 307 306 306 307 307 308 308 308 310 309 308 309 311 313 314 315 315 315 314 315 316 316 315 316 316 315 319 327 337
299 302 305 306 306 307 307 308 307 306 306 306 305 306 307 306 308 312 315 313 310 309 309 309 310 309 308 309 309 308 307 307 307 307 307 307 307 306 306 306 305 306 306 305 305 305 304 305 305 305 305 305 305 305 305 305 305 305 305 306 306 306 306 307 310 309 309 311 311 309 309 310 311 313 314 316 316 315 315 316 316 316 315 316 316 316 322 335
300 304 307 307 307 308 307 307 306 306 306 306 306 307 307 307 310 316 315 311 311 312 310 310 310 309 309 310 310 309 308 308 307 307 309 308 308 307 306 307 306 306 307 306 306 306 305 305 306 306 306 306 306 305 305 305 305 304 305 305 306 307 307 307 309 309 309 311 311 309 309 309 310 311 313 315 316 315 316 315 316 317 316 315 317 316 320 333
301 306 309 308 308 308 307 307 306 306 306 306 307 307 309 313 313 313 313 311 313 312 310 310 310 310 310 309 310 310 310 310 308 308 310 309 309 308 307 308 308 307 308 308 307 307 306 305 305 305 306 306 305 305 305 305 305 304 305 305 306 307 308 307 309 311 311 312 311 309 310 310 310 311 312 314 315 315 315 315 316 316 315 315 316 318 322 334
302 306 309 309 309 308 308 307 307 306 306 307 308 307 311 317 315 312 313 313 312 311 310 310 310 310 309 310 312 311 309 310 310 309 309 308 308 309 307 307 308 307 308 309 308 308 308 307 306 305 306 306 306 305 304 305 306 305 305 307 307 307 307 308 311 312 312 313 311 309 311 311 311 314 315 314 314 315 315 315 315 315 316 316 315 319 327 338
303 305 308 309 309 309 309 308 307 306 306 307 308 309 313 315 313 312 313 312 311 311 311 311 310 309 309 311 313 311 309 311 311 309 309 309 308 309 308 307 306 307 307 307 307 307 307 308 308 306 306 306 305 305 305 305 305 304 304 306 307 308 308 310 312 312 312 315 314 312 314 314 312 316 321 318 315 315 314 315 315 316 315 316 320 325 332 340
303 306 308 309 310 309 309 309 307 307 307 307 309 313 313 311 312 313 313 312 312 312 311 311 310 309 310 311 313 311 308 310 312 309 309 309 309 309 309 307 306 306 307 307 307 307 305 306 307 305 305 305 305 305 305 304 305 306 305 304 306 309 310 313 316 316 314 317 320 317 319 321 316 316 319 317 315 315 315 315 315 315 316 321 329 334 337 341
304 306 308 309 310 310 309 309 308 307 307 308 312 314 312 311 312 313 313 313 312 311 311 312 310 309 311 312 312 310 307 309 311 310 310 308 308 309 308 308 307 306 307 307 307 306 305 307 307 304 305 305 304 305 304 304 307 307 306 306 307 308 307 309 316 319 315 315 319 318 318 321 318 316 317 316 316 316 315 316 315 314 318 327 336 339 340 341
304 307 309 310 310 310 310 309 308 307 307 308 313 314 312 311 312 312 313 313 312 311 311 312 311 310 310 310 310 309 308 309 309 310 310 308 310 310 308 308 308 306 306 306 308 308 306 307 307 304 305 305 304 305 304 304 306 306 305 306 308 308 307 308 313 317 314 313 316 317 317 318 318 318 320 318 317 317 316 316 316 316 321 330 337 340 341 342
306 307 310 311 310 310 310 309 308 307 307 309 313 312 311 312 312 311 312 312 312 311 311 312 312 310 308 308 310 309 308 309 309 309 309 308 310 310 308 308 308 307 307 306 308 310 307 306 308 305 304 306 305 305 306 306 304 305 305 305 309 311 310 310 311 311 313 314 317 319 318 317 317 317 319 317 316 318 317 316 316 320 324 331 336 339 341 343
307 308 311 311 311 311 310 309 308 307 308 311 313 313 313 313 311 310 311 312 312 311 311 312 311 310 309 309 310 309 307 309 309 309 309 308 309 309 308 308 308 307 307 305 307 309 307 306 309 309 305 306 307 306 308 308 305 305 305 304 308 311 309 309 310 311 314 318 321 322 321 321 319 316 315 316 316 316 317 316 318 321 325 330 334 338 341 343
308 309 311 311 311 311 310 309 308 307 310 312 311 312 312 311 310 310 311 311 312 312 313 312 310 310 311 310 310 310 309 309 308 308 309 308 308 309 307 306 307 308 307 306 306 307 307 306 308 310 307 307 308 308 307 307 305 305 305 304 305 307 308 310 311 311 312 317 321 322 323 324 320 316 316 316 316 316 316 317 318 321 324 328 333 337 341 343
307 310 311 310 311 311 309 309 308 308 310 310 310 311 310 310 311 311 310 311 312 313 313 313 312 311 311 311 311 311 310 309 308 308 309 309 308 310 310 307 307 308 308 308 306 307 308 307 306 308 308 307 308 307 305 305 305 305 306 305 304 306 309 310 312 314 312 313 316 318 321 320 315 316 318 318 318 317 316 317 317 319 323 328 332 337 341 342
307 310 311 310 311 310 309 310 308 307 309 311 312 312 310 310 311 310 310 311 312 313 312 312 312 312 311 311 311 310 310 309 309 309 310 309 308 309 310 308 307 308 309 309 308 308 310 309 307 307 307 307 307 307 306 307 306 305 305 305 305 307 309 309 315 318 314 314 315 316 319 318 315 318 320 320 320 319 318 317 316 318 323 328 333 337 341 342
306 308 309 310 311 310 310 311 310 309 310 311 310 310 310 310 311 310 310 311 312 313 313 312 312 312 311 310 309 310 310 310 311 311 310 310 309 308 309 309 308 309 309 309 310 311 311 310 309 308 308 308 308 307 307 307 307 306 306 305 305 308 309 311 316 317 316 317 317 318 319 317 316 320 320 319 319 319 319 320 317 318 323 330 335 338 341 342
305 308 309 310 310 309 310 311 311 311 310 309 309 310 310 310 310 310 311 311 312 314 315 315 313 312 312 310 309 309 311 312 311 310 311 312 312 310 309 309 310 309 308 309 310 310 310 310 309 310 310 310 310 309 308 308 308 307 306 305 306 307 309 311 314 313 314 315 314 316 317 315 315 318 317 318 319 319 321 321 318 320 326 332 337 339 341 342
306 308 310 310 310 310 311 310 309 310 310 309 309 309 310 310 310 310 310 311 312 313 314 316 314 312 311 310 310 310 311 312 311 310 312 313 312 311 311 311 311 310 309 310 310 309 310 310 309 309 310 310 311 312 311 310 309 307 306 305 306 307 309 313 316 314 314 314 313 314 315 314 313 315 317 319 320 320 322 322 320 322 329 334 337 340 341 342
306 309 308 308 308 309 310 310 309 309 308 308 308 309 310 311 309 309 310 312 312 310 311 314 313 312 312 311 311 311 310 311 311 312 313 313 313 313 312 313 312 311 312 312 309 308 310 310 309 309 308 308 310 311 310 309 308 307 306 306 306 308 310 313 316 318 317 316 315 314 315 315 315 316 319 320 320 322 323 322 322 325 331 335 338 340 341 342
306 307 305 304 305 307 307 307 305 304 304 305 307 309 310 310 310 309 309 310 310 308 310 313 313 313 314 312 311 311 311 311 311 312 313 313 313 313 312 313 312 312 313 312 309 310 311 310 310 309 308 308 309 310 310 310 309 307 306 306 306 309 313 313 315 318 318 316 315 315 316 318 316 317 320 321 322 323 323 322 323 326 333 336 338 341 341 341
304 305 303 302 304 305 305 304 302 302 303 305 308 310 310 310 309 308 308 309 308 308 311 313 314 314 314 312 311 312 312 312 313 314 314 315 315 314 313 313 312 313 313 311 310 312 312 311 311 310 308 309 310 309 310 311 312 309 307 308 309 310 314 315 314 315 316 315 315 315 316 317 317 318 321 322 323 323 322 322 322 325 334 338 338 340 340 341
302 302 302 302 302 303 302 302 303 303 304 305 309 311 309 308 307 307 307 308 308 308 310 311 312 312 312 312 312 312 312 313 314 314 314 315 316 316 315 314 313 313 313 311 311 312 313 313 313 311 311 311 311 311 312 313 314 312 307 309 312 312 313 314 313 314 315 315 315 315 318 319 319 321 323 322 322 321 321 322 322 326 336 339 338 340 340 341
301 301 301 301 302 302 302 303 303 303 304 305 307 308 306 306 307 306 306 307 307 309 309 309 310 310 311 312 311 311 312 312 312 312 312 314 315 316 317 316 315 314 312 311 312 312 312 313 313 313 314 315 315 315 315 314 317 317 313 311 312 312 314 314 313 314 315 316 318 320 321 320 319 322 323 320 320 320 320 321 323 329 337 339 339 340 340 340
301 300 301 301 302 302 303 303 301 302 305 305 305 305 305 306 305 305 305 306 307 309 308 308 309 310 310 312 312 312 312 310 311 311 312 313 314 315 316 316 315 315 313 313 315 313 312 313 315 315 316 319 318 317 317 317 318 320 319 316 313 312 313 313 314 315 315 316 320 322 322 322 323 324 322 320 320 320 320 321 326 333 338 339 339 340 340 341
301 301 301 301 302 302 302 302 301 303 305 305 303 304 304 305 304 304 305 306 306 307 307 308 309 310 312 313 313 312 311 311 312 313 313 314 313 313 314 314 314 316 314 314 316 315 313 315 317 316 317 320 320 318 319 319 317 318 320 319 317 315 314 314 314 315 315 316 318 320 322 326 329 327 323 321 320 320 320 322 327 335 338 339 340 340 340 340
Wind_Speed
13 14 14 15 16 16 16 17 18 19 20 21 21 21 21 21 21 21 20 21 21 22 21 21 20 18 15 15 16 18 20 20 17 16 16 14 11 14 14 13 12 12 12 12 11 10 6 8 6 4 6 12 12 14 17 17 15 9 4 6 8 9 11 9 9 9 6 5 7 13 20 14 11 18 18 16 21 24 19 18 19 16 20 28 28 33 42 40
13 13 14 15 15 16 16 17 18 19 20 22 22 23 23 22 22 22 22 22 22 22 22 22 21 18 15 14 15 17 19 18 19 19 15 13 14 15 13 11 11 12 14 13 11 10 7 8 6 3 2 8 10 11 12 13 15 10 4 6 11 11 10 11 12 10 9 9 8 14 22 17 15 17 13 9 10 16 12 14 20 17 17 24 29 38 43 40
12 13 14 14 14 15 16 18 19 20 21 22 23 24 24 24 24 23 23 23 22 22 22 22 22 20 16 13 14 16 18 18 18 14 7 5 7 8 8 7 7 9 10 10 10 9 9 9 5 2 4 6 10 12 10 10 13 12 8 7 12 11 9 15 17 16 16 15 9 15 24 20 24 24 14 10 10 6 5 10 17 24 25 27 34 42 44 43
12 13 13 14 15 15 17 18 19 21 22 22 23 23 24 25 25 25 25 24 23 22 22 21 21 21 17 13 12 13 14 16 12 4 3 4 4 3 1 1 3 6 6 6 6 7 9 9 5 5 5 6 10 12 11 12 11 9 10 9 11 11 9 16 20 21 23 21 16 18 22 22 30 28 14 9 8 6 5 14 18 25 34 37 42 45 45 45
13 14 14 15 15 16 17 18 19 20 21 22 22 23 24 25 25 26 26 25 23 23 21 21 20 20 18 12 10 11 9 8 2 4 4 5 7 5 4 3 5 7 6 5 4 5 7 8 6 6 4 4 6 9 11 17 13 5 10 15 14 10 8 15 23 26 27 23 20 18 18 24 32 24 13 10 6 8 12 16 24 28 38 41 43 47 44 44
14 15 15 16 16 17 18 19 20 20 21 23 23 24 25 26 27 26 26 24 23 22 20 19 18 18 18 11 8 8 3 2 4 3 4 8 8 5 4 5 6 8 7 5 5 5 6 5 4 5 3 3 4 6 8 17 16 6 11 18 19 15 9 12 23 27 28 24 18 17 22 29 28 18 13 13 11 14 19 19 30 33 36 39 42 47 44 43
16 16 17 17 18 19 19 20 20 21 23 23 25 26 27 28 28 27 26 24 22 21 19 17 16 15 15 10 6 6 8 11 9 6 9 8 5 5 5 6 6 6 7 5 6 5 5 5 7 7 4 3 5 6 8 13 16 11 11 15 18 19 16 17 22 22 25 25 24 25 24 23 23 21 18 15 15 20 23 19 31 36 36 41 41 46 45 44
16 17 18 18 19 19 20 20 21 22 24 25 26 27 28 29 29 27 25 23 21 20 18 15 14 12 11 8 5 6 12 13 7 4 6 3 3 5 5 7 7 7 7 6 6 4 6 8 8 7 3 4 7 7 9 11 12 12 14 16 16 17 19 23 25 24 23 23 27 28 22 22 30 30 22 18 18 21 23 18 23 38 40 44 42 45 47 45
17 18 18 19 20 20 20 20 21 23 24 25 27 28 29 30 28 26 24 22 20 18 17 14 12 8 7 7 5 6 8 5 2 4 2 2 3 6 6 6 6 7 7 5 5 4 7 8 7 5 5 8 10 10 12 9 7 11 14 15 14 14 17 21 23 27 29 25 22 19 18 27 41 35 22 26 28 24 24 16 20 40 43 47 46 47 49 47
19 19 19 20 20 20 20 19 20 22 24 25 27 29 29 29 27 25 23 21 18 17 16 12 10 7 5 5 2 3 3 2 8 9 4 0 3 5 7 6 4 5 6 6 6 6 9 9 9 11 11 11 9 9 12 9 9 15 16 15 14 14 18 20 19 24 29 29 26 16 12 24 39 30 15 29 36 26 22 14 24 40 43 47 48 49 50 49
20 20 20 20 20 20 19 19 21 22 24 25 27 29 29 26 24 23 20 17 16 15 14 12 10 8 4 4 4 2 2 5 9 9 4 3 4 5 6 6 5 6 8 10 10 10 10 10 11 12 8 6 7 8 10 10 10 15 15 13 15 14 16 18 15 21 21 21 30 24 14 19 26 19 15 34 40 22 18 20 28 40 42 43 45 46 48 48
21 21 21 20 20 20 19 20 21 23 24 26 28 28 26 22 21 20 15 12 13 14 14 11 8 8 4 7 11 6 3 7 10 10 7 7 8 6 6 9 9 10 11 13 14 12 11 11 11 11 8 7 8 7 9 11 12 15 11 7 10 10 11 13 11 18 16 13 28 25 13 16 14 15 26 43 43 20 18 25 32 39 40 41 41 42 44 46
21 21 20 20 19 20 20 20 22 24 25 26 28 27 22 19 17 14 10 11 12 13 14 11 8 6 4 9 10 4 3 7 12 16 14 13 13 11 10 11 12 12 11 13 15 12 11 12 12 13 13 11 6 7 12 15 13 12 8 3 5 7 7 10 10 16 14 12 25 20 9 14 13 21 36 44 41 19 20 28 35 38 38 41 42 40 40 43
20 20 19 18 19 19 20 21 23 24 26 27 27 23 18 15 12 9 10 12 12 13 12 9 7 4 7 11 7 3 1 3 5 9 12 14 15 16 16 17 18 16 12 13 14 11 10 9 10 13 13 11 9 11 12 11 8 5 5 4 3 5 5 7 9 11 11 13 22 17 8 13 12 23 38 43 41 20 23 27 30 36 37 40 45 43 42 44
20 19 18 18 18 19 20 21 23 24 26 27 24 19 15 12 8 8 11 10 11 13 10 7 7 4 10 12 5 4 4 9 9 6 3 6 9 14 17 17 19 17 13 15 14 11 8 7 10 10 10 11 10 8 5 4 4 1 3 5 3 5 5 6 7 8 9 11 17 14 8 12 13 23 37 40 41 24 22 27 25 31 37 40 44 45 45 47
20 18 18 18 19 19 20 22 23 25 25 24 21 15 11 8 6 9 10 7 12 14 8 6 6 5 8 8 4 6 9 13 9 4 2 3 5 6 7 9 10 10 12 15 15 11 10 11 12 10 7 8 5 2 2 4 4 2 3 5 3 5 5 4 7 9 9 6 10 12 9 11 10 20 34 37 36 22 22 30 27 28 35 38 41 42 42 43
20 19 19 19 19 20 21 22 24 24 23 22 19 11 7 7 7 8 6 7 15 14 6 4 6 8 8 4 5 6 12 16 9 3 3 1 5 7 6 8 8 9 12 10 14 12 12 11 7 6 5 3 2 1 1 3 4 4 3 5 4 4 3 3 5 8 9 6 8 10 11 14 9 11 25 33 32 20 20 31 31 30 33 35 37 39 40 40
21 20 19 19 20 21 22 23 22 21 21 21 16 8 5 8 8 3 2 10 18 11 4 3 3 5 5 3 6 9 14 17 12 8 6 3 6 7 6 9 10 10 11 5 7 9 9 7 3 3 3 2 3 2 4 7 7 5 5 3 4 4 3 3 4 6 7 7 9 10 11 16 13 8 14 23 30 24 20 30 32 30 31 32 32 35 37 39
21 20 20 20 21 21 22 22 19 18 21 19 16 8 6 14 10 2 4 16 17 8 3 4 3 2 7 12 13 13 15 14 14 10 8 9 10 7 6 8 9 9 7 4 3 5 5 4 2 3 3 4 6 5 8 10 6 5 5 4 4 4 3 3 5 6 6 6 8 11 12 13 14 12 9 14 24 26 22 29 31 30 31 31 32 35 36 37
22 20 21 21 20 21 22 20 16 16 18 18 20 15 12 20 10 0 15 25 17 11 12 12 11 15 18 18 14 13 14 11 12 13 11 13 12 8 8 8 7 6 3 1 2 6 4 3 4 6 7 7 7 7 9 9 7 7 7 6 6 5 5 5 6 8 6 5 7 10 13 12 12 12 10 14 18 17 15 21 27 29 32 34 35 36 37 40
22 21 21 20 21 21 20 18 15 14 14 15 20 17 14 18 8 6 22 26 18 13 16 16 16 21 19 15 13 15 17 13 14 16 14 13 10 6 6 5 4 3 3 3 4 7 5 3 6 9 9 9 8 8 9 9 8 9 7 7 7 5 6 7 8 10 7 5 7 9 12 10 9 10 12 16 14 11 12 15 25 31 33 37 39 39 40 41
23 22 21 20 20 21 19 16 13 12 11 11 15 15 12 14 9 11 16 17 20 16 10 11 13 19 18 15 14 14 16 16 17 18 12 9 9 7 4 4 3 3 3 3 3 5 5 5 9 10 8 7 8 9 9 10 9 8 7 6 7 5 5 7 8 11 9 5 6 9 11 9 7 9 11 14 13 16 21 18 28 36 33 35 40 40 41 39
23 22 21 20 20 20 18 14 11 9 8 9 12 13 10 11 10 14 14 11 16 13 6 5 9 14 13 12 11 10 15 14 14 16 11 7 10 11 8 4 4 4 3 3 3 3 4 6 9 9 7 7 9 10 10 10 7 6 6 5 6 5 4 5 6 10 9 6 7 8 9 7 6 8 8 13 18 24 30 23 29 40 37 36 42 43 43 41
23 22 20 20 19 18 16 13 9 7 6 8 10 10 9 10 11 15 14 7 8 7 4 3 3 6 9 8 7 7 13 12 11 13 9 7 10 10 9 8 5 4 3 5 6 6 7 9 9 7 7 8 10 10 9 7 5 6 7 7 7 7 7 7 5 8 9 8 8 7 6 4 5 8 7 11 16 22 30 24 23 35 38 37 40 43 45 45
23 21 20 20 18 16 14 11 9 6 4 5 9 11 10 10 12 15 12 3 5 5 3 2 2 3 6 3 5 7 9 9 10 11 10 11 13 8 7 9 6 4 6 7 6 6 8 13 12 9 8 8 8 9 9 8 5 6 7 8 10 10 10 10 8 7 6 7 7 3 3 5 4 9 10 9 9 12 21 19 16 27 35 34 34 37 43 46
22 20 19 18 16 15 11 9 10 8 4 5 10 12 12 11 13 15 8 2 2 3 1 1 2 3 5 5 11 11 8 6 7 11 11 9 9 7 6 5 3 3 5 5 4 4 6 10 10 8 9 9 7 7 9 9 6 5 6 8 11 11 10 11 10 7 4 6 6 4 4 4 4 6 10 10 9 10 14 15 14 22 29 33 36 38 41 45
21 19 17 16 15 14 10 8 11 11 7 9 11 12 13 12 13 13 5 3 3 2 1 1 1 3 6 11 15 8 3 5 8 12 9 4 6 6 5 3 2 3 2 1 2 2 3 7 6 6 7 7 6 6 8 9 7 5 6 8 9 9 10 11 10 8 5 5 7 4 3 3 4 5 9 9 11 12 12 14 16 20 26 32 39 43 45 46
21 18 15 13 13 12 8 8 11 12 11 12 13 12 12 12 13 9 2 4 4 3 2 1 2 4 9 15 13 6 6 8 6 6 7 5 7 4 3 3 3 3 2 2 3 4 4 6 7 7 6 4 5 6 6 8 7 7 9 9 8 8 8 9 8 7 7 6 7 7 3 2 5 6 8 8 10 13 15 17 18 20 29 32 34 43 49 48
19 16 12 12 12 10 7 9 11 12 13 13 13 11 11 12 12 4 4 2 2 2 3 3 3 6 12 14 9 8 8 7 4 5 8 9 6 2 2 4 3 4 4 5 5 6 5 8 10 8 6 4 6 6 4 4 6 8 9 9 8 8 6 6 5 5 7 5 7 10 6 3 5 5 6 6 8 12 14 17 18 22 33 34 28 35 45 47
17 13 11 10 10 9 8 10 12 12 13 12 10 9 10 10 5 3 3 0 0 4 5 3 4 8 11 9 7 6 4 6 7 6 7 8 9 8 6 6 5 3 3 4 5 6 8 12 12 7 6 6 6 8 6 5 7 7 6 5 6 7 6 4 3 3 4 4 8 14 10 5 5 6 6 5 6 11 13 14 17 20 28 33 28 30 37 43
14 10 9 9 9 9 9 11 12 12 12 10 9 10 9 5 2 5 2 2 2 5 6 4 6 9 9 7 6 5 2 4 5 3 3 3 6 7 4 5 4 1 3 4 4 6 7 8 8 6 9 9 6 8 7 5 6 4 3 1 2 5 4 3 2 3 3 4 7 12 11 8 7 6 7 8 9 11 12 14 16 15 21 30 32 32 37 42
12 8 7 9 8 8 10 12 13 13 10 9 11 11 5 3 4 1 1 5 4 2 4 6 6 7 10 9 5 5 3 3 3 4 3 2 2 3 2 3 2 1 3 4 3 5 5 5 5 7 12 10 5 6 5 4 3 3 2 1 1 3 3 3 3 3 4 5 7 10 9 8 8 9 12 14 12 11 11 14 19 19 22 31 36 36 36 41
11 7 6 8 8 8 11 14 16 15 10 10 12 8 3 5 2 1 2 3 1 1 3 6 7 9 11 8 4 4 3 3 4 4 3 3 2 3 3 5 5 3 3 3 1 3 4 5 6 6 8 8 7 4 3 3 2 3 3 2 3 2 2 3 3 2 2 4 8 11 9 6 6 8 13 16 15 14 15 19 25 30 32 37 42 39 37 41
10 7 6 7 7 8 10 14 16 14 11 11 9 4 6 4 1 2 3 2 1 2 3 5 8 10 8 4 3 3 1 3 4 3 3 2 1 2 3 5 7 5 2 2 2 1 2 5 4 4 3 4 7 6 5 4 3 3 3 2 3 3 3 4 3 2 3 3 7 8 6 6 6 6 9 11 13 16 19 23 28 33 36 38 38 37 37 42
10 7 6 6 6 7 9 13 15 11 10 10 6 4 5 1 3 3 2 3 1 3 6 7 7 6 5 3 3 3 1 4 3 2 3 3 3 3 2 4 7 6 3 2 2 3 4 6 6 7 8 6 5 4 3 3 4 4 2 3 3 3 3 3 3 4 3 2 4 4 3 4 4 7 10 8 11 13 15 20 23 26 30 31 31 33 39 44
10 8 7 5 6 7 8 12 12 8 9 8 5 3 1 2 3 2 2 2 2 3 7 8 4 2 3 3 3 4 2 4 2 1 2 3 2 4 5 4 6 7 6 4 2 1 3 5 5 6 8 8 6 4 3 4 4 2 1 3 4 5 4 3 3 2 1 1 4 3 3 4 4 8 10 9 12 13 12 15 17 23 29 30 31 35 41 45
10 8 8 6 6 8 8 10 11 8 7 6 4 1 1 3 3 3 2 1 2 3 4 4 2 1 2 2 3 4 3 3 1 1 1 1 2 4 5 5 8 9 9 8 3 2 3 5 6 5 7 8 8 7 5 6 6 3 2 3 3 3 3 2 1 2 2 2 4 2 4 4 4 6 6 6 10 11 12 14 14 20 25 27 31 38 42 44
10 8 7 5 6 7 7 9 10 7 4 5 1 2 1 3 5 5 4 2 2 1 1 2 2 2 1 2 3 3 4 4 1 2 2 0 2 5 3 3 7 11 12 12 5 2 2 4 7 6 7 8 7 5 4 5 6 5 4 2 2 1 2 1 1 0 0 2 3 3 5 4 4 5 8 9 9 9 10 12 12 15 18 22 31 38 40 42
10 8 5 3 6 7 6 9 9 5 3 3 1 3 2 4 8 10 8 4 2 1 2 3 2 2 2 3 5 4 4 4 1 2 2 2 2 5 4 3 5 10 14 14 7 2 3 2 5 4 4 2 3 1 2 4 3 3 5 3 2 3 2 1 1 1 2 2 3 3 4 4 4 7 12 13 10 9 10 10 10 13 17 25 32 35 37 42
9 7 2 2 6 7 8 10 7 1 2 1 2 3 3 4 10 16 14 8 4 3 3 3 3 2 3 5 6 4 3 4 3 2 2 3 3 5 6 6 4 6 11 13 7 3 3 2 4 4 2 2 1 3 4 3 3 2 3 4 2 2 1 1 1 1 2 2 2 2 4 5 6 7 10 11 11 11 12 12 12 13 20 29 34 37 39 42
11 4 1 4 6 7 10 9 4 0 1 1 2 3 4 5 9 17 17 11 8 7 7 4 4 4 4 4 5 5 3 4 4 4 2 3 4 4 5 9 8 4 6 8 6 5 3 3 4 4 3 1 5 5 3 4 4 4 4 5 4 3 2 2 3 3 2 2 3 2 3 8 9 5 5 7 9 10 12 13 13 14 24 33 35 40 44 44
11 3 3 6 6 8 9 5 2 1 2 2 4 5 7 9 9 13 14 10 8 8 7 5 4 5 5 4 4 5 4 4 4 3 3 5 6 5 7 10 12 8 5 3 3 4 3 2 3 5 4 5 8 8 7 7 5 3 4 5 4 5 5 4 4 3 2 3 3 1 3 9 7 1 1 5 7 11 16 15 14 18 28 35 36 41 47 48
13 6 5 5 4 7 6 3 3 2 2 5 7 8 10 10 7 8 10 6 5 4 3 3 4 4 4 3 3 5 4 4 4 4 4 5 6 11 15 17 14 8 5 3 2 2 2 2 2 4 4 5 8 8 9 8 6 3 5 5 4 5 6 5 4 1 1 2 2 1 5 10 6 5 5 8 11 16 22 22 15 20 27 34 39 42 46 49
14 9 6 2 4 6 3 1 2 4 5 7 8 11 12 8 6 7 7 6 5 2 2 3 4 5 4 3 3 4 4 3 4 5 5 3 4 12 17 17 13 6 4 5 6 5 3 2 2 2 3 4 4 3 4 5 4 3 4 5 6 7 6 4 3 1 2 3 2 2 5 9 8 9 10 12 15 16 20 28 21 22 26 31 40 42 45 47
12 7 5 3 6 7 4 3 3 4 6 7 9 11 10 6 8 12 11 11 9 4 3 5 4 5 4 3 4 6 5 4 3 4 3 2 5 10 12 12 10 6 7 11 15 12 4 2 3 4 3 3 2 3 3 3 4 4 4 6 7 8 7 4 2 2 4 4 4 5 6 11 14 15 15 14 16 15 15 25 20 25 33 34 39 42 43 45
7 3 4 6 6 6 8 9 6 3 3 6 7 7 5 4 9 15 13 8 7 7 8 7 3 3 3 3 6 9 5 6 6 4 4 4 3 5 12 16 7 7 14 21 23 13 2 2 6 7 6 6 5 5 3 1 4 6 8 8 7 7 8 6 3 3 4 3 5 6 6 13 19 17 17 15 14 14 14 18 16 17 32 39 41 44 45 45
5 1 2 5 6 5 6 7 6 6 6 6 4 4 5 6 6 11 11 6 11 15 8 4 1 2 4 3 7 8 4 4 7 6 6 6 4 5 11 11 6 19 19 19 20 10 2 2 8 10 11 9 8 8 6 3 3 7 8 8 8 8 7 6 4 4 4 4 7 7 5 11 18 17 17 16 12 14 13 13 18 14 24 38 41 43 45 44
4 2 2 3 4 2 3 7 11 12 11 7 3 2 6 8 7 9 10 9 14 15 6 2 3 5 6 3 3 5 5 5 5 5 4 5 4 4 5 6 9 18 15 12 13 7 2 3 6 9 11 12 12 12 10 7 7 6 8 9 10 10 8 5 5 7 6 5 8 10 9 13 18 16 15 13 9 13 17 20 29 25 19 35 39 41 41 41
5 4 3 5 5 5 7 13 16 14 10 7 3 3 7 9 9 9 8 8 11 10 6 6 9 13 10 3 3 4 3 3 6 4 2 4 4 3 1 2 5 10 8 5 5 2 1 2 3 6 8 10 13 13 12 10 7 5 9 11 9 8 8 7 8 10 10 10 12 13 13 15 14 12 12 13 15 20 23 29 37 28 21 33 36 38 40 40
7 5 8 10 8 9 12 13 11 8 7 6 4 5 8 9 11 12 10 8 9 7 8 12 14 17 14 5 5 6 5 5 8 8 5 5 4 2 3 1 3 5 4 3 2 0 0 1 2 4 4 5 8 8 9 10 7 5 7 9 8 7 8 9 10 10 9 11 12 11 12 13 10 7 8 14 23 26 23 26 32 23 24 31 33 36 39 42
7 4 7 9 6 7 9 9 8 5 4 3 4 6 8 9 12 15 12 10 9 6 9 14 16 15 13 8 6 8 8 8 13 16 14 12 9 6 5 2 4 4 3 4 2 1 1 1 1 0 1 3 3 1 2 6 8 6 5 8 11 10 8 8 8 8 9 10 10 10 9 9 6 5 8 13 20 23 19 20 22 19 26 29 34 36 37 42
9 5 4 5 4 4 6 8 7 5 3 4 7 8 8 10 15 16 10 8 12 16 17 17 15 12 9 8 10 14 16 17 22 25 23 22 21 17 14 10 7 4 3 2 2 2 3 2 2 2 2 4 4 5 5 0 5 3 6 8 11 10 8 8 8 10 12 11 8 8 8 7 4 6 11 13 17 19 18 21 19 15 25 28 35 40 41 44
Wind_Direction
7 6 6 4 2 2 3 3 2 2 0 360 358 357 354 351 350 348 345 342 338 335 332 329 327 329 326 311 304 302 301 304 303 295 288 288 279 264 263 266 277 286 285 286 284 283 246 207 196 193 228 225 221 228 222 216 212 196 186 214 222 223 217 208 199 207 203 218 242 246 246 248 260 262 266 261 255 249 220 181 176 185 188 182 180 174 164 166
4 4 3 1 359 359 -0 360 358 357 357 356 354 353 351 349 346 344 341 338 336 334 331 329 326 328 330 314 304 302 302 305 306 304 299 284 264 253 253 258 271 279 282 283 279 273 227 196 189 159 245 234 225 224 223 220 211 202 188 211 223 222 214 206 209 212 208 221 241 253 253 254 256 262 271 269 265 253 226 162 152 143 159 169 168 165 160 168
0 358 357 356 354 356 357 356 355 353 353 353 351 350 348 346 344 341 339 336 333 332 330 329 326 327 332 320 306 303 305 310 310 309 314 291 262 238 238 251 276 289 290 283 268 256 223 209 220 292 306 259 234 223 221 218 210 216 210 217 227 218 213 209 211 216 218 229 240 257 260 263 261 261 267 273 284 262 154 141 146 134 149 163 163 164 165 173
355 351 350 350 350 351 352 352 351 350 349 349 347 346 344 344 341 338 336 333 332 330 328 327 326 327 330 327 310 305 313 319 310 300 74 47 39 87 120 44 344 333 329 304 265 245 231 227 246 295 299 275 244 228 225 218 210 220 213 226 230 209 219 213 209 218 222 229 234 251 262 265 262 260 260 268 295 288 172 163 159 147 158 164 163 168 171 175
348 344 342 343 343 345 345 347 348 347 346 344 343 342 341 341 339 336 332 331 329 328 327 325 326 326 327 331 312 305 327 334 293 138 84 12 7 27 30 10 341 335 329 312 279 240 235 234 258 293 279 263 248 228 230 227 222 253 240 244 241 215 223 213 210 218 220 225 229 242 252 258 262 261 254 248 244 261 256 206 183 170 166 166 168 171 174 176
342 340 338 338 338 339 341 344 345 345 343 340 340 339 338 338 336 333 329 328 327 327 328 325 325 325 327 334 313 302 315 282 213 175 326 323 329 334 322 306 312 323 314 296 276 252 235 235 287 300 255 238 252 234 247 238 227 250 258 251 246 236 238 221 216 217 218 221 224 231 239 253 264 268 255 242 235 245 267 236 194 185 174 168 172 173 175 178
337 335 335 336 335 337 339 342 343 342 341 338 337 337 336 335 333 330 328 327 326 327 328 325 325 324 326 331 316 287 250 260 256 251 299 311 307 293 278 287 298 308 311 294 262 250 254 272 299 295 265 244 261 252 262 257 238 237 253 253 249 244 244 240 237 229 221 220 224 230 237 252 259 265 259 239 246 249 263 247 190 184 180 172 174 177 179 182
331 331 332 334 334 335 336 339 341 340 338 335 335 334 334 333 330 327 325 325 325 324 325 326 324 322 329 330 329 292 265 283 288 255 308 328 297 296 281 281 287 292 295 285 262 263 291 295 297 289 279 245 255 260 262 265 251 241 245 253 257 254 250 247 251 252 246 233 229 233 236 248 250 256 262 245 249 246 257 270 191 179 178 176 179 183 182 182
327 328 330 331 332 331 332 338 339 337 336 334 333 333 333 331 328 325 323 323 322 319 321 326 322 322 332 316 317 306 283 318 83 138 48 34 327 325 321 300 281 286 286 275 275 278 285 287 285 290 315 291 274 267 260 254 248 249 252 259 259 258 257 250 247 249 254 253 241 237 235 240 246 252 263 254 254 249 254 274 193 178 176 177 181 183 181 180
327 327 328 329 330 330 331 336 336 333 333 332 332 332 332 330 327 324 324 325 321 318 320 323 323 318 312 287 294 312 277 123 140 150 129 85 291 299 320 328 285 276 275 269 264 257 267 270 280 298 306 298 285 267 255 246 252 265 271 276 269 260 260 251 243 239 244 252 246 239 237 238 243 246 262 257 254 249 242 235 189 182 177 177 179 181 182 180
326 326 326 328 330 330 332 335 333 331 332 332 331 331 330 328 325 323 325 327 326 327 322 319 320 310 299 249 238 254 218 171 171 176 179 255 269 266 292 297 272 270 265 265 255 246 254 255 282 302 301 296 308 304 280 267 278 287 287 287 278 271 264 253 247 239 234 244 243 238 242 246 245 245 255 255 255 245 215 201 188 184 181 179 178 180 181 180
326 325 324 326 327 329 332 333 331 331 332 332 330 329 329 326 322 322 327 331 331 333 327 321 314 307 304 240 243 254 232 206 206 210 211 245 254 239 252 257 266 280 275 266 255 245 240 243 280 298 292 302 317 318 293 287 308 312 302 287 280 278 266 253 248 245 235 230 237 238 246 247 242 244 246 249 253 242 193 191 184 181 181 179 179 179 181 181
328 326 325 326 327 329 332 331 330 331 331 331 331 330 330 324 320 324 330 332 333 335 330 320 306 304 285 264 271 295 277 241 234 234 235 249 248 230 235 250 269 286 282 269 261 258 246 245 274 289 291 295 291 290 291 298 314 313 294 264 267 277 262 243 241 246 245 233 229 226 240 243 229 237 241 245 251 233 173 181 178 178 181 179 180 181 182 183
333 330 328 329 331 331 331 332 331 331 331 332 333 332 329 320 315 326 330 329 335 337 336 326 313 292 255 282 322 41 14 320 286 260 253 257 252 244 246 254 270 281 276 269 269 271 261 256 275 284 285 277 279 294 298 303 312 304 286 275 225 245 253 232 230 231 240 244 226 211 226 242 228 235 239 240 247 228 168 179 180 179 182 178 179 182 184 184
341 338 335 336 336 335 335 335 333 332 333 335 337 335 328 317 313 330 331 334 343 339 343 343 334 312 274 290 0 54 7 1 359 359 314 280 272 264 259 260 267 271 269 265 266 268 266 272 272 272 278 278 289 298 303 323 308 271 264 274 212 218 247 236 236 220 223 245 225 206 225 242 230 235 238 237 243 234 174 181 186 182 183 179 180 182 185 186
347 343 342 344 341 340 340 337 334 334 336 340 342 341 333 324 321 333 335 349 353 343 344 352 351 338 289 291 18 29 2 357 4 34 18 15 8 315 279 282 280 279 284 265 255 260 262 263 261 260 271 282 292 286 311 335 306 282 206 246 248 222 238 235 245 234 225 248 230 214 224 239 230 232 238 236 238 232 175 179 189 187 186 182 181 183 186 186
349 345 348 349 345 345 343 338 337 337 342 346 346 347 348 336 321 326 343 354 345 340 334 333 330 310 279 286 359 353 353 352 354 348 319 16 359 341 327 313 304 302 309 270 241 251 255 250 245 253 256 238 240 137 302 281 262 269 225 234 259 234 228 217 237 245 230 231 241 234 232 238 235 224 234 235 234 224 171 178 190 189 189 186 183 185 186 185
350 351 352 349 347 347 343 339 340 342 346 353 356 350 336 341 332 315 355 338 332 330 316 282 300 308 270 277 322 319 332 340 337 315 292 295 318 333 328 299 292 299 321 314 237 248 251 246 197 221 256 202 217 175 196 229 225 236 237 234 268 256 238 215 227 252 232 220 236 246 246 241 240 229 230 229 228 222 182 178 190 190 189 188 186 187 187 187
352 354 350 347 348 347 344 341 343 347 351 0 10 3 340 355 4 140 327 325 320 313 290 262 236 280 276 278 291 306 313 322 331 308 267 292 304 304 300 283 283 290 315 356 297 284 253 234 193 205 240 219 217 206 217 238 244 263 266 247 265 269 251 236 246 259 243 230 239 244 251 249 240 233 234 228 225 227 204 182 188 189 186 188 188 189 190 189
353 352 348 347 347 346 345 343 346 355 1 9 15 17 11 4 11 260 324 318 304 283 269 264 257 262 276 285 293 308 304 298 314 302 281 295 291 281 283 267 282 296 286 303 295 304 278 215 220 217 221 223 226 233 239 254 272 282 282 268 263 265 265 267 270 271 254 235 242 245 253 258 249 232 226 234 233 237 217 184 186 190 185 186 189 191 191 190
352 351 348 346 346 347 346 345 349 1 15 21 21 26 20 8 5 323 330 321 311 298 267 261 258 256 268 289 306 314 304 289 296 301 298 290 269 267 274 240 273 303 253 243 254 290 292 233 235 226 220 222 227 241 250 257 259 260 269 277 270 260 264 268 270 276 272 253 251 252 259 263 258 241 221 226 233 241 231 189 186 193 188 186 189 191 192 191
351 350 348 346 346 347 347 349 352 2 19 28 29 30 15 5 350 320 330 316 313 321 283 265 254 252 266 284 298 301 286 280 290 299 304 278 239 218 220 201 215 246 257 265 262 290 290 255 247 240 232 227 229 239 247 253 251 250 253 262 269 266 271 274 269 272 274 272 264 257 261 264 256 250 230 221 223 232 236 210 191 196 193 188 190 190 190 190
350 350 347 345 347 349 350 356 354 353 17 34 32 25 2 352 339 319 326 304 302 322 320 278 240 250 282 300 308 285 256 256 275 290 306 278 230 205 204 205 208 232 252 240 225 240 253 254 248 240 235 231 236 239 241 252 252 246 246 243 255 255 255 270 271 271 271 263 268 273 270 262 248 253 245 226 222 229 236 222 196 199 198 192 192 191 190 187
349 350 345 344 349 352 354 3 3 350 11 34 22 8 342 334 333 327 331 309 288 319 354 355 225 267 310 320 321 280 242 237 255 279 297 278 248 214 208 224 229 239 236 223 224 226 240 254 251 241 231 225 233 239 237 247 253 244 239 235 245 246 238 246 266 281 286 276 268 286 296 278 229 236 249 233 222 226 232 222 192 198 204 198 193 192 191 188
349 349 344 343 351 356 356 8 20 4 357 18 3 349 333 325 328 330 336 327 282 301 349 44 144 328 341 324 307 302 278 260 254 275 291 281 268 244 224 229 219 226 234 233 243 247 254 258 256 252 246 234 230 238 235 230 245 254 237 229 237 243 242 246 261 275 289 284 266 240 269 282 235 223 236 234 220 226 232 224 190 193 203 203 197 193 192 191
348 348 343 343 351 356 359 14 18 13 358 348 353 351 342 334 330 327 330 24 316 285 339 95 155 338 350 341 325 325 317 286 264 286 296 290 276 262 253 237 196 213 224 231 256 250 252 256 252 248 249 247 236 241 241 227 234 252 229 221 229 236 241 242 250 254 245 263 260 180 184 269 287 239 237 229 216 221 231 235 218 201 200 200 200 197 194 193
347 347 344 344 350 356 6 18 8 10 6 342 344 347 341 335 329 323 326 59 11 303 295 142 141 349 341 334 332 333 312 292 295 292 283 295 307 284 264 251 221 245 210 70 287 250 281 284 284 282 267 257 245 243 241 227 226 246 235 229 230 231 236 235 237 244 241 258 270 242 179 265 294 267 256 239 219 218 223 235 236 223 212 203 199 198 197 195
346 346 346 344 349 355 0 2 359 2 353 335 335 338 336 329 319 320 54 84 5 329 353 338 296 333 338 334 326 306 289 295 298 279 261 291 319 303 256 241 222 238 190 136 255 272 296 285 280 281 275 269 254 238 237 231 228 239 237 234 238 233 233 235 231 239 246 254 273 261 202 238 270 268 273 255 223 219 219 226 233 232 227 216 200 195 196 196
345 346 349 348 352 357 352 348 351 351 342 337 341 341 335 320 309 325 93 79 349 340 349 338 315 327 337 336 315 287 292 288 251 251 271 283 285 266 255 270 268 263 223 188 230 264 260 267 275 268 257 262 261 259 269 258 245 250 244 238 250 252 245 245 233 238 249 237 255 255 217 199 260 259 273 268 228 218 216 221 225 227 231 229 212 198 195 192
345 346 356 0 0 1 355 351 349 345 344 344 343 338 328 314 311 63 59 335 302 345 343 335 321 325 333 338 313 288 274 260 254 259 272 268 263 268 278 284 278 269 264 225 240 261 258 275 285 270 258 267 271 279 282 261 260 280 277 252 262 266 254 254 226 205 249 241 245 253 232 200 253 257 245 251 238 224 214 215 220 221 228 230 223 212 201 190
346 350 3 12 11 6 2 1 360 359 354 344 335 335 331 323 56 84 40 307 296 331 348 336 310 315 324 332 312 289 267 266 260 237 249 253 260 270 285 292 270 247 314 291 269 277 270 275 278 268 275 279 281 282 276 267 267 279 298 276 294 289 263 261 239 164 219 242 240 254 242 211 232 256 248 242 244 240 226 212 213 215 222 225 223 219 209 193
347 352 6 12 9 5 3 4 12 17 5 341 335 339 351 40 35 71 278 325 316 296 339 327 308 310 316 317 287 256 263 271 240 207 218 211 230 240 191 211 219 180 294 268 274 294 274 260 260 270 277 271 272 289 285 295 280 226 238 68 88 281 252 227 232 189 212 240 240 250 248 226 226 239 248 250 250 250 246 228 214 208 214 220 221 218 207 192
343 341 356 9 1 355 2 5 14 20 3 337 338 342 57 78 18 312 308 320 290 251 311 304 296 301 307 305 271 252 256 246 230 200 198 196 214 255 232 211 195 175 226 238 312 325 297 289 266 257 270 248 232 256 268 283 293 196 191 133 146 199 219 223 236 220 224 259 255 246 239 235 236 233 238 246 248 244 246 245 229 214 210 214 218 215 201 188
336 334 339 357 352 345 355 3 14 18 350 335 349 19 59 59 269 317 340 264 231 298 286 288 302 303 296 267 252 275 289 269 247 185 176 180 187 260 269 235 220 202 198 252 274 211 266 296 263 220 246 232 220 222 216 233 274 253 215 157 169 186 199 216 208 201 223 265 269 251 228 214 219 237 235 234 245 246 247 249 238 221 212 210 212 207 193 185
331 333 332 338 343 338 349 2 13 10 340 341 14 64 59 42 259 310 299 239 292 306 283 292 300 300 297 267 275 296 243 267 284 175 187 183 175 211 232 234 222 201 180 220 232 197 226 258 251 246 262 270 265 252 234 244 265 261 208 158 199 215 229 241 206 188 192 275 284 253 236 229 222 250 252 247 258 259 258 255 241 222 209 199 195 191 185 184
329 327 326 315 321 330 344 358 2 346 335 0 45 62 62 209 243 294 272 261 300 288 296 300 271 264 308 297 307 319 233 231 297 353 228 210 204 204 199 222 215 193 188 198 220 190 211 252 266 274 275 266 262 275 284 270 269 283 170 192 225 226 225 257 274 249 134 295 273 229 246 292 289 264 258 254 258 257 254 252 236 214 200 187 182 184 184 184
330 321 325 305 312 333 338 345 342 324 339 31 71 43 257 232 247 268 283 291 254 264 312 318 262 231 301 306 299 303 282 263 299 336 263 245 269 229 205 219 214 205 201 195 220 235 200 262 277 277 281 277 278 291 289 254 247 264 256 250 285 265 224 194 255 333 23 278 269 217 217 249 254 260 264 249 251 252 241 237 226 210 197 182 180 184 184 184
337 331 334 317 324 333 322 328 328 313 352 52 50 282 235 222 248 259 268 248 223 230 294 291 265 240 275 303 274 269 302 311 334 298 278 216 257 241 213 214 215 218 207 189 201 256 181 257 277 249 248 275 298 302 295 265 238 232 251 287 43 320 284 324 232 265 188 256 285 254 232 229 214 241 263 258 257 263 253 236 220 210 196 182 183 185 182 180
344 339 350 341 326 320 305 314 317 315 25 62 297 273 241 243 272 282 277 243 203 165 220 237 230 248 276 255 260 282 294 290 311 297 262 187 234 241 214 204 225 223 203 182 182 212 154 209 286 264 233 290 350 286 240 275 254 230 262 278 118 166 232 264 246 196 182 240 276 265 252 240 217 234 250 255 258 261 260 242 218 211 198 186 185 184 180 177
350 341 4 314 302 298 303 308 304 336 61 112 230 254 266 274 290 296 287 250 206 188 222 222 192 236 281 257 265 290 269 258 248 219 226 212 243 256 218 200 232 233 197 180 178 177 146 190 257 284 329 21 321 231 203 216 219 200 236 240 193 184 245 272 247 218 199 230 259 293 289 259 240 236 242 254 265 264 258 240 222 211 199 192 186 182 179 177
2 357 302 303 282 282 309 310 285 172 117 234 245 245 281 290 288 296 293 263 230 221 226 224 206 230 270 275 284 290 274 267 241 214 236 224 219 257 231 207 213 216 177 178 186 184 173 190 229 275 320 261 242 247 233 221 207 178 190 216 200 181 206 279 275 254 224 226 249 265 280 269 261 244 239 259 272 277 270 249 232 212 198 194 187 182 179 179
5 3 310 317 280 283 311 309 260 204 174 263 277 257 289 298 284 294 298 272 234 224 223 227 228 238 252 266 284 280 270 278 263 219 219 231 215 222 241 232 219 200 164 168 189 172 149 136 224 260 263 247 253 263 269 268 255 218 215 217 179 165 191 214 231 255 268 277 286 263 253 268 270 232 280 286 294 298 292 271 238 213 198 190 185 182 180 180
353 340 335 328 272 293 321 315 310 310 224 276 289 281 294 296 279 290 299 281 243 220 211 222 219 220 226 218 261 278 262 252 252 229 233 251 225 222 241 253 246 215 158 145 128 111 107 123 217 267 283 278 272 266 263 265 266 258 238 222 196 190 201 196 190 220 294 279 308 345 262 266 286 21 350 316 316 307 307 304 266 212 193 184 180 179 179 179
344 335 348 346 257 287 324 267 306 321 302 306 313 307 303 288 267 284 294 296 290 230 201 251 216 202 227 217 224 263 263 250 253 250 252 261 247 249 251 253 254 236 181 178 161 154 166 163 192 252 297 302 299 284 254 239 225 225 227 220 219 217 207 187 169 207 269 261 249 248 264 269 291 331 324 318 320 307 315 320 285 209 179 175 176 175 177 177
349 342 356 340 267 265 276 273 285 305 312 321 317 307 306 293 286 304 305 292 287 259 247 275 218 185 234 255 253 263 239 211 248 269 268 256 267 276 277 277 274 244 184 153 143 148 164 171 180 198 218 227 215 208 212 192 187 212 226 218 221 219 207 186 152 193 236 265 257 238 269 287 294 309 309 312 320 309 322 329 286 202 170 168 172 171 174 174
4 355 342 333 295 261 267 281 299 327 315 320 314 293 297 299 299 318 322 296 297 309 278 263 225 178 224 263 298 298 261 208 224 256 280 268 259 284 299 307 306 152 140 135 140 146 147 182 199 210 211 210 212 227 246 123 162 205 217 217 223 223 210 196 168 176 206 267 277 245 259 288 292 303 307 309 324 317 322 337 306 211 170 166 170 170 172 173
16 37 8 345 318 292 288 298 332 345 306 297 302 267 293 313 313 331 337 318 321 323 292 237 201 248 254 301 317 304 285 238 234 242 261 260 252 274 302 327 91 130 131 139 152 152 69 205 215 215 218 231 243 258 287 311 235 219 208 207 217 222 215 203 198 212 220 250 271 255 239 279 287 296 303 309 327 324 319 334 318 269 180 165 167 169 169 171
13 0 32 7 326 300 334 321 317 316 304 287 263 259 319 338 345 340 332 319 321 324 314 277 310 287 266 276 300 283 297 311 276 253 266 267 274 289 318 17 114 140 138 152 171 159 99 225 218 206 218 235 242 252 259 252 241 221 199 202 210 212 212 211 216 231 236 239 262 268 261 271 281 288 300 310 325 323 318 320 313 291 202 167 164 166 166 168
18 346 329 339 321 275 290 302 299 301 304 300 305 339 339 340 339 332 325 321 320 320 321 316 313 314 305 253 221 262 291 311 285 278 279 269 286 295 314 37 137 155 140 154 193 169 75 238 212 203 222 232 233 237 233 226 228 211 197 198 200 201 205 218 232 238 245 249 254 263 268 270 274 280 296 315 324 319 317 317 309 287 203 169 165 165 165 166
26 1 329 329 315 285 294 306 305 301 306 321 346 346 336 335 333 331 323 309 303 308 328 324 314 315 313 277 220 243 240 250 271 273 264 268 294 282 240 215 159 172 161 169 189 60 139 209 201 205 236 250 237 226 213 209 201 184 188 188 191 202 208 220 234 242 251 258 257 262 270 273 272 272 297 325 326 318 316 314 300 263 193 169 166 165 165 167
34 18 332 329 314 299 315 328 330 319 308 353 6 336 335 334 327 327 318 294 287 298 324 320 312 313 313 295 251 250 255 255 256 256 255 255 256 245 235 193 144 154 181 195 185 124 172 240 264 204 321 282 257 340 260 209 172 166 197 192 192 199 207 220 231 233 238 249 262 270 270 266 275 310 327 330 321 309 306 307 287 228 185 173 167 165 168 171
25 28 3 342 305 300 331 336 338 337 314 341 344 324 318 317 320 327 325 304 310 318 319 316 311 314 315 305 304 305 297 279 267 269 267 258 251 247 243 235 215 175 154 203 204 162 187 269 325 2 349 284 294 345 336 40 130 192 228 198 191 193 194 214 231 236 233 231 242 256 253 250 277 338 333 318 306 297 295 300 286 209 179 178 172 168 172 174